This is the latest recevied weather packets stored in our database for station/object KC0AFB. If no packets are shown the sender has not sent any weather packets the latest 10 day(s).
| Time | Temp. | Humidity | Pressure | Rain* | Wind** | Luminosity | Snow |
|---|---|---|---|---|---|---|---|
| 1778093051 | 6.67° C | 49% | 1016.4 hPa | 0 mm | - | 291 W/m² | - |
| 1778092748 | 7.78° C | 49% | 1016.7 hPa | 0 mm | - | 236 W/m² | - |
| 1778092443 | 7.22° C | 50% | 1016.7 hPa | 0 mm | - | 300 W/m² | - |
| 1778092141 | 7.78° C | 49% | 1016.9 hPa | 0 mm | - | 252 W/m² | - |
| 1778091837 | 7.78° C | 52% | 1016.8 hPa | 0 mm | - | 416 W/m² | - |
| 1778091535 | 7.22° C | 50% | 1016.9 hPa | 0 mm | - | 938 W/m² | - |
| 1778091233 | 7.22° C | 56% | 1016.9 hPa | 0 mm | - | 418 W/m² | - |
| 1778090930 | 6.67° C | 50% | 1017.1 hPa | 0 mm | - | 435 W/m² | - |
| 1778090626 | 6.67° C | 50% | 1017.1 hPa | 0 mm | - | 507 W/m² | - |
| 1778090322 | 7.22° C | 49% | 1017.2 hPa | 0 mm | - | 531 W/m² | - |
| 1778090019 | 6.67° C | 49% | 1017.2 hPa | 0 mm | - | 432 W/m² | - |
| 1778089716 | 7.22° C | 49% | 1017.1 hPa | 0 mm | - | 377 W/m² | - |
| 1778089414 | 6.67° C | 50% | 1017.2 hPa | 0 mm | - | 411 W/m² | - |
| 1778089111 | 6.67° C | 50% | 1017.4 hPa | 0 mm | - | 281 W/m² | - |
| 1778088808 | 6.67° C | 51% | 1017.3 hPa | 0 mm | - | 359 W/m² | - |
| 1778088505 | 6.11° C | 50% | 1017.5 hPa | 0 mm | - | 788 W/m² | - |
| 1778088201 | 6.11° C | 52% | 1017.7 hPa | 0 mm | - | 600 W/m² | - |
| 1778087899 | 6.11° C | 50% | 1017.6 hPa | 0 mm | - | 326 W/m² | - |
| 1778087596 | 6.11° C | 49% | 1017.7 hPa | 0 mm | - | 329 W/m² | - |
| 1778087294 | 6.11° C | 51% | 1017.6 hPa | 0 mm | - | 345 W/m² | - |
| 1778086989 | 5.56° C | 51% | 1017.7 hPa | 0 mm | - | 371 W/m² | - |
| 1778086689 | 5.56° C | 50% | 1017.9 hPa | 0 mm | - | 313 W/m² | - |
| 1778086385 | 5.56° C | 51% | 1017.7 hPa | 0 mm | - | 284 W/m² | - |
| 1778086082 | 5.56° C | 51% | 1017.9 hPa | 0 mm | - | 312 W/m² | - |
| 1778085779 | 5.56° C | 51% | 1018 hPa | 0 mm | - | 302 W/m² | - |
* Rain latest hour (hover to see other rain measurements)
** Current wind speed in m/s (hover to see current wind gust speed)